| DS18B20 | SHTC3 | ||||||
|---|---|---|---|---|---|---|---|
| ID | Date d/m/Y & Time | data1 สูง | data2 ต่ำ | data3 นอก | temp pcb | hum pcb | Time |
| 2823 | 15/03/2026 22:29:25 | 28.5  | 28.6  | 27.5  | 28.4  | 72.8  | 22:29 |
| 2822 | 15/03/2026 22:24:41 | 28.5  | 28.6  | 27.5  | 28.6  | 72.6  | 22:24 |
| 2821 | 15/03/2026 22:19:59 | 28.6  | 28.6  | 27.5  | 28.6  | 72.7  | 22:19 |
| 2820 | 15/03/2026 22:15:17 | 28.6  | 28.7  | 27.5  | 28.6  | 72.6  | 22:15 |
| 2819 | 15/03/2026 22:10:35 | 28.6  | 28.7  | 27.5  | 28.6  | 72.7  | 22:10 |
| 2818 | 15/03/2026 22:05:54 | 28.6  | 28.7  | 27.5  | 28.6  | 72.6  | 22:05 |
| 2817 | 15/03/2026 22:01:13 | 28.6  | 28.8  | 27.5  | 28.7  | 72.6  | 22:01 |
| 2816 | 15/03/2026 21:56:31 | 28.6  | 28.8  | 27.6  | 28.6  | 72.6  | 21:56 |
| 2815 | 15/03/2026 21:51:49 | 28.7  | 28.8  | 27.6  | 28.6  | 72.7  | 21:51 |
| 2814 | 15/03/2026 21:47:09 | 28.7  | 28.8  | 27.7  | 28.7  | 72.6  | 21:47 |
| 2813 | 15/03/2026 21:42:27 | 28.7  | 28.8  | 27.7  | 28.7  | 72.6  | 21:42 |
| 2812 | 15/03/2026 21:37:46 | 28.8  | 28.9  | 27.7  | 28.7  | 72.7  | 21:37 |
| 2811 | 15/03/2026 21:33:05 | 28.8  | 28.9  | 27.7  | 28.7  | 72.7  | 21:33 |
| 2810 | 15/03/2026 21:28:23 | 28.8  | 28.9  | 27.7  | 28.6  | 72.6  | 21:28 |
| 2809 | 15/03/2026 21:23:40 | 28.8  | 28.9  | 27.7  | 28.8  | 72.8  | 21:23 |
| 2808 | 15/03/2026 21:18:57 | 28.8  | 28.9  | 27.7  | 28.9  | 72.7  | 21:18 |
| 2807 | 15/03/2026 21:14:16 | 28.8  | 29.0  | 27.7  | 28.9  | 72.8  | 21:14 |
| 2806 | 15/03/2026 21:09:35 | 28.9  | 29.0  | 27.7  | 28.7  | 72.5  | 21:09 |
| 2805 | 15/03/2026 21:04:53 | 28.9  | 29.1  | 27.7  | 28.8  | 72.6  | 21:04 |
| 2804 | 15/03/2026 21:00:12 | 28.9  | 29.1  | 27.7  | 29.0  | 72.6  | 21:00 |
| 2803 | 15/03/2026 20:55:30 | 28.9  | 29.1  | 27.8  | 29.0  | 72.6  | 20:55 |
| 2802 | 15/03/2026 20:50:48 | 28.9  | 29.1  | 27.9  | 29.0  | 72.7  | 20:50 |
| 2801 | 15/03/2026 20:46:05 | 28.9  | 29.1  | 27.8  | 28.9  | 72.6  | 20:46 |
| 2800 | 15/03/2026 20:41:23 | 29.0  | 29.2  | 27.8  | 28.9  | 72.7  | 20:41 |